Simultaneous Nadir Overpasses (SNOs) Predictions

Prediction of SNOs between GOES-16 and AQUA Satellite Orbit:

Table of predicted SNOs for the next 14.0 days since TLE Epoch: 9/12/2025
Index Date Time (GOES-16) GOES-16 Lat,Lon AQUA Lat,Lon Distance(km) Time Diff (sec)
1 09/13/2025 10:02:48 -0.09,-104.66 0.39,-107.04 269.38 80
2 09/15/2025 09:39:30 -0.10,-104.65 -0.67,-101.98 304.22 80
3 09/15/2025 21:58:43 0.10,-104.65 -0.34,-106.62 224.64 80
4 09/17/2025 21:40:45 0.11,-104.64 0.75,-101.56 349.90 80
5 09/18/2025 09:59:48 -0.10,-104.65 0.24,-106.17 173.29 80
6 09/20/2025 09:36:30 -0.11,-104.65 -0.88,-101.12 401.83 80
7 09/20/2025 21:55:43 0.11,-104.64 -0.12,-105.76 126.97 80
8 09/22/2025 21:37:44 0.11,-104.65 0.97,-100.71 449.17 80
9 09/23/2025 09:56:48 -0.10,-104.66 0.01,-105.31 73.32 80
10 09/25/2025 21:52:41 0.10,-104.65 0.06,-104.89 26.55 80
